Probability
0 3 19 29 29 29 26 32 35 35 32 39 35 35 35 29 29 29 32 29 39 29 26 26 19 19 19 23 19 19 13 16 13 6 10 13 10 6 6 10 6 0 10
0 6 19 26 29 29 29 29 35 35 39 35 32 39 39 32 29 29 32 32 29 23 26 23 16 23 19 19 16 13 10 3 0 0 0 0 0 6 3 3 3 3 10
0 6 23 23 29 29 29 29 32 32 35 35 35 32 26 32 29 29 29 29 19 23 19 13 13 13 13 19 13 16 3 0 0 0 0 0 0 6 3 3 6 10 10
6 10 16 23 29 29 29 26 29 29 35 35 39 39 26 23 39 29 29 23 16 19 19 10 16 10 10 6 10 10 3 0 0 0 0 0 0 0 3 3 3 10 10
6 10 19 23 26 26 29 26 26 29 35 39 42 39 26 26 29 32 26 16 16 23 19 16 13 13 10 6 10 3 0 0 0 0 0 0 0 3 3 6 6 3 6
6 10 16 23 26 23 29 26 26 29 32 35 35 39 35 26 26 29 29 19 23 19 16 16 16 13 10 10 10 3 3 0 0 0 0 0 0 3 3 3 6 6 6
6 10 16 19 26 23 26 26 26 32 35 29 29 35 26 29 16 23 19 19 19 16 13 13 16 10 6 6 3 3 0 0 0 0 0 0 0 0 3 3 3 6 10
6 10 16 16 13 19 23 23 26 32 29 29 29 29 26 19 23 23 16 16 10 16 16 13 13 10 6 6 6 3 0 0 0 0 0 0 0 0 0 3 3 3 6
6 13 13 10 10 13 10 13 16 23 26 29 29 29 23 19 19 16 16 10 10 6 13 13 10 10 6 6 3 0 0 0 0 0 0 0 0 0 0 3 0 0 3
6 10 13 10 10 10 6 10 10 10 13 16 13 6 3 3 6 6 3 6 6 6 10 6 6 3 6 3 0 0 0 0 0 0 0 0 3 0 0 3 3 0 0
6 6 6 6 6 6 6 6 3 3 3 3 0 0 0 0 0 3 3 0 3 3 3 6 3 3 0 0 0 0 0 0 0 0 0 0 0 0 0 3 3 3 0
3 3 6 6 6 3 6 3 3 3 0 0 0 0 0 0 0 0 0 0 0 3 3 3 3 0 0 0 0 0 0 0 0 0 0 0 0 0 0 0 0 0 0
3 3 3 6 6 3 3 3 3 3 0 0 0 0 0 0 0 0 0 0 0 0 0 0 0 0 0 0 0 0 0 0 0 0 0 0 3 3 3 0 0 0 0
3 0 3 3 6 3 3 3 3 3 0 0 0 0 0 0 0 0 0 0 0 0 0 0 0 0 0 0 0 0 0 0 0 0 0 0 0 0 3 0 0 0 0
0 0 0 0 6 3 3 3 3 0 0 0 0 0 0 0 0 0 0 0 0 0 0 0 0 0 0 0 0 0 0 0 0 0 0 0 0 0 0 0 0 0 0
0 0 0 0 3 3 3 3 3 0 0 0 0 0 0 0 0 0 0 0 0 0 0 0 0 0 0 0 0 0 0 0 0 0 0 0 0 0 0 0 0 0 0
0 0 0 0 0 3 3 3 3 0 0 0 0 0 0 0 0 0 0 0 0 0 0 0 0 0 0 0 0 0 0 0 0 0 0 0 0 0 0 0 0 0 0
0 0 0 0 0 3 3 3 3 0 0 0 0 0 0 0 0 0 0 0 0 0 0 0 0 0 0 0 0 0 0 0 0 0 0 0 0 0 0 0 0 0 0
0 0 0 0 0 0 0 0 0 0 0 0 0 0 0 0 0 0 0 0 0 0 0 0 0 0 0 0 0 0 0 0 0 0 0 0 0 0 0 0 0 0 0
0 0 0 0 0 0 0 0 0 0 0 0 0 0 0 0 0 0 0 0 0 0 0 0 0 0 0 0 0 0 0 0 0 0 0 0 0 0 0 0 0 0 0
0 0 0 0 0 0 0 0 0 0 0 0 0 0 0 0 0 0 0 0 0 0 0 0 0 0 0 0 0 0 0 0 0 0 0 0 0 0 0 0 0 0 0
0 0 0 0 0 0 0 0 0 0 0 0 0 0 0 0 0 0 0 0 0 0 0 0 0 0 0 0 0 0 0 0 0 0 0 0 0 0 0 0 0 0 0
0 0 0 0 0 0 0 0 0 0 0 0 0 0 0 0 0 0 0 0 0 0 0 0 0 0 0 0 0 0 0 0 0 0 0 0 0 0 0 0 0 0 0
0 0 0 0 0 0 0 0 0 0 0 0 0 0 0 0 0 0 0 0 0 0 0 0 0 0 0 0 0 0 0 0 0 0 0 0 0 0 0 0 0 0 0
0 0 0 0 0 0 0 0 0 0 0 0 0 0 0 0 0 0 0 0 0 0 0 0 0 0 0 0 0 0 0 0 0 0 0 0 0 0 0 0 0 0 0
0 0 0 0 0 0 0 0 0 0 0 0 0 0 0 0 0 0 0 0 0 0 0 0 0 0 0 0 0 0 0 0 0 0 0 0 0 0 0 0 0 0 0
Height
5825 5826 5828 5829 5830 5832 5833 5834 5836 5837 5839 5840 5841 5842 5843 5844 5846 5847 5848 5849 5850 5851 5852 5853 5853 5854 5855 5855 5856 5857 5857 5857 5857 5857 5858 5858 5857 5857 5857 5856 5856 5856 5855
5822 5823 5824 5826 5827 5829 5830 5832 5833 5834 5836 5837 5839 5840 5841 5843 5844 5845 5846 5847 5848 5849 5850 5851 5852 5853 5854 5854 5855 5856 5856 5856 5857 5857 5857 5857 5857 5857 5856 5856 5856 5855 5855
5818 5820 5821 5822 5824 5826 5827 5828 5830 5832 5833 5835 5836 5837 5839 5840 5842 5843 5844 5846 5847 5848 5849 5849 5850 5851 5852 5853 5854 5854 5855 5855 5856 5856 5856 5856 5856 5856 5856 5856 5855 5855 5854
5814 5815 5817 5819 5820 5822 5823 5825 5826 5828 5830 5831 5833 5835 5836 5838 5839 5840 5842 5843 5845 5846 5847 5848 5849 5850 5851 5851 5852 5853 5854 5854 5854 5855 5855 5855 5855 5855 5855 5855 5855 5854 5854
5809 5811 5812 5814 5816 5818 5820 5821 5823 5824 5826 5828 5829 5831 5833 5835 5836 5838 5839 5841 5842 5844 5845 5846 5847 5848 5848 5849 5850 5851 5852 5853 5853 5853 5854 5854 5854 5854 5854 5854 5854 5854 5853
5803 5805 5807 5809 5811 5813 5815 5817 5818 5820 5822 5824 5825 5827 5829 5831 5833 5834 5836 5837 5839 5841 5842 5843 5844 5845 5846 5847 5848 5849 5850 5851 5851 5852 5852 5853 5853 5853 5853 5853 5853 5853 5852
5796 5798 5801 5803 5805 5808 5810 5812 5814 5815 5818 5819 5821 5823 5825 5827 5829 5831 5832 5834 5835 5837 5838 5840 5841 5842 5843 5844 5845 5846 5848 5849 5849 5850 5851 5851 5851 5851 5851 5851 5852 5851 5851
5789 5791 5794 5797 5799 5801 5804 5806 5808 5810 5812 5814 5816 5818 5820 5822 5824 5826 5828 5830 5831 5833 5835 5836 5838 5839 5840 5841 5842 5843 5845 5846 5847 5848 5848 5849 5849 5849 5849 5850 5850 5850 5850
5781 5784 5786 5789 5792 5795 5797 5800 5802 5804 5807 5809 5811 5813 5815 5817 5819 5821 5823 5825 5827 5829 5830 5832 5834 5835 5836 5838 5839 5840 5841 5843 5844 5845 5846 5846 5847 5847 5847 5847 5848 5848 5848
5773 5776 5778 5781 5784 5787 5790 5793 5795 5798 5800 5803 5805 5807 5810 5812 5814 5816 5818 5819 5821 5823 5825 5827 5829 5831 5832 5833 5835 5836 5838 5839 5840 5841 5842 5843 5844 5844 5844 5845 5845 5845 5845
5764 5767 5770 5773 5776 5779 5782 5785 5788 5791 5794 5796 5799 5801 5803 5806 5808 5810 5812 5814 5816 5818 5820 5822 5823 5825 5827 5829 5830 5832 5833 5835 5836 5837 5838 5839 5840 5841 5841 5841 5842 5842 5842
5755 5758 5762 5765 5768 5771 5774 5777 5780 5783 5786 5789 5792 5794 5797 5799 5801 5803 5805 5808 5810 5812 5813 5815 5817 5820 5822 5823 5825 5827 5829 5830 5832 5833 5834 5835 5836 5837 5837 5838 5838 5839 5839
5746 5749 5752 5756 5759 5762 5765 5769 5772 5775 5778 5782 5784 5787 5789 5791 5794 5796 5799 5801 5803 5805 5807 5809 5811 5813 5815 5818 5820 5821 5823 5825 5827 5828 5830 5831 5832 5833 5833 5834 5834 5835 5835
5736 5739 5742 5746 5749 5753 5756 5760 5763 5766 5770 5773 5776 5779 5781 5784 5786 5789 5791 5794 5796 5798 5800 5802 5804 5806 5809 5811 5813 5815 5818 5820 5822 5823 5825 5826 5827 5828 5829 5830 5830 5831 5831
5725 5729 5732 5736 5739 5742 5746 5750 5754 5757 5761 5764 5767 5770 5773 5775 5778 5781 5783 5786 5788 5790 5792 5794 5797 5799 5801 5804 5806 5809 5811 5814 5816 5818 5819 5820 5822 5823 5824 5825 5825 5826 5827
5714 5717 5721 5724 5728 5732 5735 5739 5744 5747 5751 5754 5757 5761 5764 5767 5769 5772 5775 5777 5780 5783 5785 5787 5790 5792 5795 5797 5799 5802 5805 5807 5809 5811 5813 5815 5816 5818 5819 5820 5820 5821 5822
5703 5706 5710 5713 5717 5721 5724 5728 5733 5737 5741 5744 5747 5751 5755 5758 5761 5764 5766 5769 5772 5775 5778 5780 5782 5785 5787 5790 5792 5795 5797 5800 5802 5804 5806 5808 5810 5812 5813 5814 5815 5816 5816
5692 5695 5698 5702 5706 5710 5714 5717 5722 5726 5730 5734 5737 5741 5745 5748 5751 5754 5758 5760 5763 5766 5769 5772 5775 5777 5780 5782 5785 5787 5790 5792 5795 5797 5799 5801 5803 5805 5807 5808 5809 5810 5811
5680 5683 5687 5691 5695 5699 5703 5706 5711 5715 5720 5723 5727 5731 5735 5739 5742 5745 5749 5752 5755 5758 5761 5764 5766 5769 5772 5774 5777 5779 5781 5784 5787 5789 5792 5794 5796 5798 5800 5801 5802 5804 5804
5669 5672 5676 5679 5683 5687 5692 5696 5700 5704 5709 5713 5717 5721 5725 5729 5732 5736 5739 5743 5746 5749 5752 5755 5758 5761 5763 5766 5768 5771 5773 5776 5778 5781 5784 5786 5788 5790 5792 5794 5795 5797 5797
5658 5661 5665 5668 5672 5676 5681 5685 5690 5694 5699 5703 5707 5711 5715 5719 5723 5726 5730 5733 5737 5740 5743 5746 5749 5752 5755 5757 5760 5762 5765 5767 5770 5773 5775 5778 5780 5782 5784 5786 5787 5789 5790
5647 5650 5654 5656 5661 5666 5671 5676 5680 5685 5689 5693 5697 5701 5704 5709 5713 5717 5721 5724 5728 5731 5734 5737 5740 5743 5745 5748 5751 5753 5755 5759 5761 5764 5766 5769 5771 5773 5775 5777 5779 5780 5781
5638 5640 5643 5647 5651 5655 5660 5665 5670 5674 5679 5683 5687 5691 5695 5698 5702 5707 5710 5714 5718 5721 5724 5727 5730 5733 5736 5738 5741 5743 5746 5749 5752 5755 5757 5759 5761 5764 5766 5767 5769 5771 5772
5628 5630 5634 5637 5641 5645 5650 5655 5660 5664 5669 5674 5678 5681 5685 5688 5692 5696 5700 5704 5707 5711 5714 5717 5720 5723 5726 5728 5731 5733 5736 5738 5741 5745 5748 5750 5752 5754 5756 5757 5759 5761 5762
5620 5622 5625 5628 5632 5636 5640 5645 5650 5654 5659 5663 5667 5671 5674 5678 5681 5685 5689 5693 5697 5700 5704 5706 5709 5712 5715 5718 5721 5723 5725 5728 5730 5734 5737 5740 5742 5744 5745 5747 5749 5750 5752
5611 5613 5616 5619 5623 5626 5630 5635 5640 5644 5648 5652 5656 5660 5663 5667 5671 5675 5679 5683 5686 5690 5693 5696 5699 5702 5704 5707 5710 5712 5715 5717 5719 5722 5725 5728 5731 5733 5735 5736 5738 5740 5741
Wind_Speed
17 17 17 16 16 15 15 15 14 14 13 12 12 11 11 10 10 9 9 8 9 8 7 7 6 6 5 5 4 4 4 3 3 3 3 3 3 3 3 4 4 4 5
19 19 18 18 18 17 16 16 16 15 15 14 14 13 13 12 11 11 10 10 10 9 9 8 7 7 6 6 6 5 5 4 4 4 4 3 3 3 3 3 4 4 4
21 20 20 19 19 18 18 18 17 17 16 16 15 15 14 14 13 12 12 11 11 11 10 10 9 8 8 7 7 6 6 6 5 5 5 4 4 3 3 3 3 4 4
23 22 21 21 21 20 19 19 19 18 18 17 17 16 16 15 15 14 13 13 13 12 12 11 11 10 10 9 9 8 7 7 6 6 6 5 5 4 4 4 4 3 4
25 25 24 23 23 22 21 21 20 19 19 19 18 18 17 17 17 16 16 15 14 14 14 13 12 12 11 11 10 9 9 8 8 7 7 6 6 5 5 5 4 4 4
28 27 27 26 25 24 24 23 22 21 21 20 20 19 19 19 19 18 17 17 17 16 16 15 14 14 14 13 12 11 11 10 9 8 8 7 6 6 5 5 5 5 5
30 30 29 29 27 27 26 25 24 24 23 22 22 22 21 21 20 20 19 19 18 18 17 17 16 16 16 15 15 14 12 12 11 10 9 9 8 7 7 6 6 6 6
32 31 31 31 30 29 28 27 26 26 25 25 25 24 24 23 22 22 22 21 20 20 19 18 18 18 18 17 16 16 15 14 13 12 11 11 10 9 9 8 8 8 8
33 32 32 33 32 31 30 29 28 27 27 27 26 26 25 25 24 23 23 23 23 22 22 21 20 19 19 18 18 17 17 16 15 14 13 12 12 11 10 10 10 10 10
34 34 34 34 34 34 33 32 30 29 28 28 28 28 27 26 26 26 25 25 24 24 24 23 22 21 21 20 20 19 18 18 17 16 15 14 14 13 12 12 12 11 11
35 35 35 36 35 35 35 34 34 32 31 29 29 29 29 28 28 27 27 26 26 26 26 26 25 24 23 23 22 21 20 19 19 18 17 16 16 15 15 14 14 13 13
36 36 36 37 37 36 36 36 36 35 33 31 31 31 30 30 29 28 28 28 27 27 27 27 27 26 26 25 24 23 23 22 21 20 19 18 17 17 17 17 16 15 15
38 38 38 38 38 38 38 38 37 36 35 33 32 33 32 31 31 30 30 29 28 28 28 28 28 28 27 27 26 25 25 24 23 22 21 20 19 19 18 18 18 17 16
39 39 39 38 39 39 39 40 39 38 37 36 35 35 34 33 33 32 31 31 30 30 30 30 30 29 28 28 28 27 27 25 25 24 23 22 21 20 20 20 19 18 18
40 40 40 39 40 41 41 41 41 40 39 39 37 36 35 35 35 33 33 32 32 31 31 31 30 30 29 29 29 29 29 28 26 26 25 25 24 22 22 21 21 20 20
41 42 42 41 41 41 41 42 43 42 41 41 39 38 36 37 37 36 35 34 32 32 32 31 31 30 30 30 30 30 29 29 28 27 27 26 25 24 24 23 22 22 21
41 42 43 43 43 43 42 43 44 43 42 42 41 40 38 38 37 37 36 35 34 33 33 32 32 32 32 31 31 31 31 31 29 28 28 27 26 26 25 25 24 24 23
41 42 43 44 44 44 44 43 43 44 43 42 42 41 39 38 38 38 37 36 35 34 34 33 33 33 34 33 32 32 32 33 31 30 29 29 28 27 27 26 26 26 25
42 42 43 44 44 44 45 43 43 43 43 43 42 42 41 40 39 39 38 38 37 36 35 35 35 34 34 33 33 32 33 33 34 32 32 31 30 30 29 29 28 27 27
41 43 43 44 45 45 44 43 43 43 43 42 42 42 42 42 40 39 39 38 38 38 37 37 36 35 35 34 34 34 33 34 34 34 34 33 31 31 31 31 30 30 29
40 41 43 43 44 44 44 43 43 42 42 42 41 42 41 42 42 40 40 39 39 39 38 37 36 36 36 35 36 36 35 35 35 35 35 34 33 33 33 32 32 32 31
40 40 41 42 43 43 44 44 43 42 43 42 41 42 42 42 42 41 40 40 40 39 39 38 37 38 37 37 36 36 37 37 36 35 36 36 35 34 34 34 33 33 33
40 40 40 42 42 42 44 44 43 43 44 44 43 41 42 42 42 42 41 40 41 41 41 40 40 39 39 39 38 37 37 37 36 37 37 37 37 36 36 36 35 35 35
39 40 40 41 41 42 43 44 44 44 44 44 43 43 43 43 43 42 42 40 40 41 42 41 41 40 40 40 39 39 39 39 39 38 37 38 38 38 37 37 37 37 37
38 39 41 42 42 41 42 43 43 44 44 45 44 44 44 44 44 44 43 42 40 41 42 42 42 41 41 41 41 41 41 41 41 41 39 39 39 39 39 39 39 39 39
37 38 40 41 41 41 43 43 43 44 45 46 46 45 45 45 45 46 45 43 42 42 42 42 42 42 42 42 42 42 43 43 43 43 42 42 41 40 40 40 40 40 39
Wind_Direction
246 245 246 244 243 242 240 239 238 236 234 235 235 232 232 232 231 233 236 237 237 238 239 244 248 246 246 244 244 248 255 264 276 289 308 323 336 341 346 357 4 7 11
247 245 246 246 246 245 244 242 240 239 238 239 238 236 235 235 234 235 237 238 237 238 237 241 245 247 246 246 248 251 257 262 270 280 295 304 313 323 331 343 351 356 2
247 247 246 246 246 245 244 242 241 241 240 240 239 237 237 237 236 237 239 240 240 243 243 242 244 245 245 246 249 253 257 260 267 276 282 292 295 301 309 320 332 344 354
245 246 246 246 247 247 245 243 242 242 242 242 240 239 239 238 239 239 241 243 243 246 247 246 245 244 245 247 250 252 255 258 261 269 274 282 286 289 297 307 316 329 343
245 245 245 245 246 247 246 244 242 242 243 242 242 240 241 241 242 242 242 245 246 248 248 248 247 247 247 248 249 250 251 256 259 263 270 275 278 286 292 297 303 309 319
245 245 245 244 245 246 246 245 242 242 242 242 243 242 242 243 245 245 245 247 247 248 248 247 247 248 250 250 250 249 251 254 257 261 267 271 274 280 286 291 293 296 305
245 245 245 244 243 245 246 246 244 243 243 244 245 245 244 245 246 246 247 247 249 249 249 248 249 250 250 251 250 250 252 254 255 259 264 268 270 274 278 282 284 288 296
246 244 244 244 243 244 245 246 245 243 244 245 246 247 246 246 246 247 247 247 248 249 249 249 250 250 251 251 250 250 251 254 257 259 261 265 267 270 273 273 276 280 285
246 244 244 244 244 243 244 244 244 243 244 246 247 248 247 247 247 247 247 247 248 248 249 249 250 251 250 248 248 250 250 252 256 258 260 263 265 268 271 271 274 278 281
246 244 243 244 243 242 243 244 244 244 244 246 246 247 246 246 247 247 246 247 248 248 248 249 250 250 250 248 248 248 249 252 254 258 259 260 262 265 268 271 273 275 277
246 244 243 243 244 243 242 243 243 243 244 244 246 246 246 246 246 247 246 246 247 248 248 249 249 249 249 248 247 248 250 251 253 256 258 258 260 262 265 269 272 273 274
246 244 243 243 243 243 242 242 242 242 243 242 243 245 246 246 245 247 247 246 247 248 248 249 249 248 249 248 248 248 249 250 253 255 257 260 261 261 263 267 269 270 272
245 244 243 243 243 243 242 242 242 242 242 242 243 244 245 246 245 246 247 246 247 247 248 249 248 247 248 248 248 248 248 249 251 253 256 259 261 262 263 264 267 268 269
247 244 243 243 243 242 242 241 242 242 243 244 244 245 245 247 246 245 246 246 247 247 248 250 250 248 248 248 248 248 248 248 250 251 254 257 259 262 263 263 265 267 268
248 246 243 243 243 243 242 242 241 242 243 244 244 245 247 246 247 245 246 247 247 248 248 250 250 249 249 249 249 249 249 248 249 251 254 257 258 261 263 263 263 265 266
248 245 243 243 243 243 243 242 241 243 245 245 244 245 246 245 246 246 246 246 247 247 246 247 249 249 249 249 249 248 248 249 249 251 253 255 257 260 261 261 262 263 264
249 246 243 243 243 243 244 243 243 243 245 245 245 245 244 244 245 246 246 246 245 245 246 248 249 249 250 250 249 248 248 248 249 249 252 254 257 259 259 260 262 263 264
249 247 245 243 243 244 244 243 243 243 244 245 244 244 243 244 245 245 244 244 244 245 246 248 249 250 250 250 250 250 249 249 248 249 251 254 255 258 258 259 261 262 263
249 247 246 244 244 243 244 244 243 243 243 244 244 244 242 243 245 246 245 244 245 245 246 248 248 249 249 249 250 251 250 249 249 250 251 254 256 257 257 258 260 261 262
250 249 247 246 244 244 244 244 243 242 243 243 244 243 244 245 245 246 246 246 246 246 246 247 248 248 249 249 249 250 250 249 251 252 252 253 255 257 258 258 259 260 262
249 248 247 246 244 243 242 241 242 242 242 242 243 243 245 246 246 246 246 246 247 247 247 247 247 247 248 249 250 250 250 250 251 252 252 254 255 255 257 257 259 259 260
248 248 246 246 244 243 241 240 241 242 242 243 243 243 244 245 246 247 246 247 247 248 247 247 247 248 249 249 250 251 250 250 250 252 253 254 254 254 255 256 257 258 259
249 248 245 244 244 243 242 240 241 241 242 242 244 244 245 245 244 246 247 248 248 248 248 248 248 248 249 250 251 252 251 249 250 252 254 253 254 255 256 256 257 257 258
249 247 246 244 243 242 242 241 242 242 241 242 244 245 246 246 245 245 246 248 249 248 248 248 250 250 250 250 251 251 250 250 249 251 252 254 255 255 256 256 256 257 259
249 247 245 243 242 241 240 240 241 241 241 243 244 245 247 247 245 244 245 247 247 248 248 248 250 251 250 250 251 252 251 251 251 252 252 253 254 255 257 257 257 257 258
250 248 244 242 241 241 241 240 241 241 241 243 243 245 246 247 246 245 246 246 247 247 248 249 251 251 251 252 252 253 252 252 253 253 253 253 253 254 255 257 258 258 259